[[{"header":{"parameterUnit":"m.s-1","parameterCategory":1,"la1":30.2991,"la2":30.254,"lo1":-89.0895,"lo2":-89.0444,"dy":0.0017,"dx":0.0017,"nx":28,"ny":28,"refTime":"2024-07-29T03:00:00:Z","depth":0,"parameterNumber":2,"parameterNumberName":"U-component_of_WINDS"},"data":[0,0,0,0,0,0,0,0,0,0,0,0,0,0,0,0,0,0,0,0,0,0,0,0,0,0,0,0,0,0,0,0,0,0,0,0,0,0,0,0,0,0,0,0,0,0,0,0,0,0,0,0,0,0,0,0,0,0,5.2085,5.2087,0,5.2254,5.2256,5.2257,5.219,5.2186,5.2182,5.2178,5.2354,5.2362,5.2371,0,0,0,0,0,0,0,0,0,0,0,0,0,5.1705,5.1713,5.2085,5.2087,5.2089,5.2253,5.2256,5.2258,5.219,5.2185,5.2181,5.2176,5.2351,5.2361,5.2371,0,0,0,0,0,0,0,0,0,0,0,0,0,5.1872,5.1715,5.2084,5.2075,5.2076,5.2253,5.2256,5.2259,5.2191,5.2185,5.2179,5.2174,5.2348,5.236,5.2373,5.257,0,0,5.2411,5.2417,0,0,0,0,0,0,0,0,5.1862,5.1886,5.2074,5.2076,5.2077,5.2194,5.2186,5.2363,5.2193,5.2148,5.2178,5.2171,5.2306,5.2322,5.2367,5.2579,5.2586,5.2413,5.242,5.2426,5.2429,0,0,0,0,0,0,0,5.1851,5.1878,5.2152,5.2077,5.2079,5.2063,5.208,5.222,5.2258,5.2151,5.2146,5.2167,5.2306,5.2355,5.237,5.2589,5.2412,5.2423,5.2431,5.2436,5.2968,5.2975,0,0,0,0,0,0,5.1839,5.1869,5.2146,5.2157,5.1953,5.2074,5.2093,5.2163,5.2257,5.2265,5.2172,5.2163,5.2336,5.2356,5.2376,5.2611,5.2425,5.2437,5.2445,5.2962,5.297,5.2977,0,0,0,0,0,0,5.1831,5.1864,5.2139,5.2012,5.2045,5.2087,5.2166,5.2169,5.2218,5.2273,5.2279,5.2215,5.2332,5.2359,5.2522,5.2616,5.2443,5.2454,5.2954,5.2964,5.2973,5.3084,0,0,0,0,0,0,5.182,5.1862,5.1937,5.2014,5.2052,5.2282,5.2172,5.2177,5.224,5.223,5.2314,5.2323,5.2329,5.2503,5.2534,5.2631,5.2464,5.2946,5.2959,5.297,5.3072,5.3097,5.3118,0,0,0,0,0,5.1807,5.1963,5.1941,5.1975,5.2147,5.2287,5.231,5.2313,5.2248,5.2323,5.2358,5.232,5.2601,5.252,5.2555,5.2657,5.294,5.2955,5.2969,5.3062,5.3092,5.3117,0,0,0,0,0,0,5.1898,5.1973,5.195,5.2135,5.2205,5.2276,5.2372,5.2345,5.2436,5.2423,5.2425,5.2445,5.2612,5.2651,5.256,5.2851,5.2761,5.2783,5.282,5.2848,5.287,5.2857,5.2475,0,0,0,0,0,5.1939,5.2046,5.2106,5.2264,5.23,5.233,5.2391,5.2388,5.2461,5.2491,5.2537,5.2611,5.2715,5.2784,5.2884,5.3078,5.3094,5.3165,5.3187,5.3206,5.3225,5.3327,5.3359,5.3025,5.3025,5.3025,0,0,5.2026,5.208,5.2148,5.2284,5.2337,5.2448,5.2356,5.2477,5.2559,5.251,5.2665,5.2702,5.2784,5.2963,5.3044,5.3,5.332,5.3225,5.3239,5.3248,5.3346,5.3377,5.3405,5.3035,5.3034,5.3032,0,0,5.2241,5.2293,5.2429,5.2484,5.2566,5.2585,5.2617,5.2692,5.2714,5.287,5.2834,5.2932,5.3113,5.3172,5.3226,5.346,5.3428,5.3493,5.3611,5.3711,5.3737,5.376,5.3842,5.3871,5.3512,5.3512,5.3512,0,5.2339,5.2503,5.2503,5.2626,5.2686,5.2644,5.2781,5.2836,5.2947,5.2989,5.2939,5.3162,5.3215,5.3405,5.3462,5.3508,5.3544,5.3483,5.3733,5.3757,5.3778,5.3856,5.3887,5.3519,5.3519,5.3518,5.3517,0,5.2618,5.2733,5.2833,5.2938,5.301,5.314,5.3159,5.3231,5.3221,5.3245,5.3404,5.3465,5.3575,5.362,5.3613,5.381,5.3779,5.3732,5.364,5.3817,5.389,5.392,5.353,5.3527,5.3525,5.3523,0,0,5.2895,5.2997,5.3034,5.308,5.3167,5.3255,5.3383,5.3489,5.355,5.3628,5.3734,5.3887,5.3842,5.3903,5.3902,5.399,5.4168,5.3931,5.3933,5.3971,5.4386,5.442,5.4454,5.4148,5.4154,5.4158,5.4378,0,5.3114,5.3336,5.3338,5.3543,5.3647,5.3609,5.372,5.3785,5.381,5.3903,5.3932,5.4039,5.3973,5.4009,5.4095,5.4129,5.4252,5.4113,5.4246,5.4251,5.4224,5.4493,5.4529,5.4734,5.4407,5.4412,5.4415,0,5.3399,5.3484,5.3698,5.3767,5.3811,5.391,5.4006,5.4095,5.4168,5.418,5.4247,5.4232,5.4362,5.4267,5.4445,5.4351,5.4405,5.443,5.4438,5.4449,5.4342,5.4509,5.48,5.4829,5.4461,5.4457,5.4454,0,5.3576,5.3744,5.3893,5.3934,5.4019,5.4089,5.4128,5.4195,5.4258,5.4342,5.4382,5.4481,5.4535,5.4612,5.4624,5.4554,5.4801,5.4709,5.4814,5.4814,5.4867,5.4863,5.5168,5.4906,5.4906,5.4905,5.4904,0,5.3819,5.3951,5.3973,5.4064,5.4211,5.4212,5.4357,5.4391,5.445,5.4547,5.4521,5.4613,5.4623,5.4718,5.4729,5.4873,5.4898,5.4911,5.4911,5.4912,5.491,5.4946,5.4931,5.4913,5.4911,5.491,5.4908,0,5.4041,5.4061,5.4221,5.4287,5.4307,5.4412,5.4468,5.4556,5.4578,5.4701,5.473,5.4765,5.4875,5.4894,5.5025,5.5031,5.5203,5.5191,5.5177,5.5175,5.5278,5.5267,5.5616,5.566,5.5372,5.5374,5.5377,0,5.4194,5.4294,5.4371,5.4433,5.4474,5.4576,5.4639,5.4644,5.4711,5.48,5.4876,5.4983,5.5068,5.5246,5.5283,5.5382,5.537,5.5485,5.5385,5.5381,5.5369,5.5361,5.537,5.5504,5.5507,5.551,5.5512,0,5.4462,5.4466,5.4557,5.4652,5.4727,5.4802,5.4873,5.4926,5.494,5.5016,5.5127,5.5193,5.5325,5.543,5.5528,5.5569,5.5543,5.5543,5.5572,5.5573,5.556,5.5565,5.5227,5.5535,5.5533,5.5531,5.553,5.5529,5.4652,5.4738,5.4805,5.4906,5.496,5.5026,5.511,5.5142,5.5234,5.534,5.5338,5.5459,5.5528,5.5656,5.5702,5.5797,5.576,5.5803,5.5814,5.5823,5.5832,5.5546,5.5815,5.5815,5.5814,5.5814,5.5813,0,5.4917,5.4957,5.505,5.5149,5.5228,5.5196,5.5272,5.5341,5.5447,5.5513,5.5597,5.5723,5.5825,5.587,5.597,5.6037,5.6027,5.6062,5.6056,5.6065,5.5861,5.5824,5.6068,5.6068,5.6068,5.6068,5.6068,5.6068,5.5063,5.5206,5.5218,5.5386,5.5426,5.5543,5.5589,5.5649,5.5701,5.5842,5.5926,5.5954,5.6011,5.6114,5.6206,5.6217,5.6253,5.6294,5.6299,5.6106,5.608,5.6056,5.6021,5.6303,5.6303,5.6495,5.6497,5.6498]},{"header":{"parameterUnit":"m.s-1","parameterCategory":1,"la1":30.2991,"la2":30.254,"lo1":-89.0895,"lo2":-89.0444,"dy":0.0017,"dx":0.0017,"nx":28,"ny":28,"refTime":"2024-07-29T03:00:00:Z","depth":0,"parameterNumber":3,"parameterNumberName":"V-component_of_WINDS"},"data":[0,0,0,0,0,0,0,0,0,0,0,0,0,0,0,0,0,0,0,0,0,0,0,0,0,0,0,0,0,0,0,0,0,0,0,0,0,0,0,0,0,0,0,0,0,0,0,0,0,0,0,0,0,0,0,0,0,0,1.2004,1.2005,0,1.2043,1.2043,1.2044,1.2027,1.2026,1.2025,1.2024,1.2064,1.2066,1.2068,0,0,0,0,0,0,0,0,0,0,0,0,0,1.1915,1.1917,1.2004,1.2005,1.2005,1.2043,1.2043,1.2044,1.2027,1.2026,1.2025,1.2024,1.2064,1.2066,1.2068,0,0,0,0,0,0,0,0,0,0,0,0,0,1.1954,1.1918,1.2004,1.2001,1.2002,1.2043,1.2043,1.2044,1.2027,1.2026,1.2025,1.2023,1.2063,1.2066,1.2069,1.2115,0,0,1.2078,1.2079,0,0,0,0,0,0,0,0,1.1952,1.1957,1.2001,1.2002,1.2002,1.2029,1.2027,1.2068,1.2028,1.2018,1.2024,1.2023,1.2054,1.2057,1.2068,1.2117,1.2118,1.2078,1.208,1.2081,1.2082,0,0,0,0,0,0,0,1.1949,1.1955,1.2019,1.2002,1.2002,1.1998,1.2002,1.2034,1.2043,1.2018,1.2017,1.2022,1.2054,1.2065,1.2068,1.2119,1.2078,1.208,1.2082,1.2083,1.2206,1.2207,0,0,0,0,0,0,1.1946,1.1953,1.2018,1.2021,1.1973,1.2001,1.2005,1.2021,1.2043,1.2045,1.2023,1.2021,1.2061,1.2065,1.207,1.2124,1.2081,1.2084,1.2085,1.2204,1.2206,1.2208,0,0,0,0,0,0,1.1945,1.1952,1.2017,1.1987,1.1994,1.2004,1.2022,1.2023,1.2034,1.2046,1.2048,1.2033,1.206,1.2066,1.2103,1.2125,1.2085,1.2088,1.2203,1.2205,1.2207,1.2234,0,0,0,0,0,0,1.1942,1.1952,1.197,1.1987,1.1996,1.205,1.2024,1.2025,1.2039,1.2037,1.2056,1.2058,1.2059,1.2099,1.2106,1.2129,1.209,1.2201,1.2204,1.2206,1.2231,1.2237,1.2242,0,0,0,0,0,1.1939,1.1977,1.1971,1.1979,1.2019,1.2051,1.2056,1.2057,1.2041,1.2059,1.2066,1.2057,1.2122,1.2103,1.2111,1.2135,1.2199,1.2203,1.2206,1.2229,1.2236,1.2242,0,0,0,0,0,0,1.1962,1.1979,1.1973,1.2017,1.2033,1.2048,1.2071,1.2064,1.2085,1.2082,1.2082,1.2086,1.2125,1.2133,1.2112,1.2179,1.2158,1.2163,1.2173,1.2179,1.2184,1.2182,1.2092,0,0,0,0,0,1.1973,1.1998,1.201,1.2048,1.2056,1.2062,1.2077,1.2075,1.2092,1.2098,1.2109,1.2125,1.2148,1.2164,1.2187,1.2232,1.2235,1.2252,1.2257,1.2262,1.2266,1.2289,1.2296,1.2219,1.2219,1.2219,0,0,1.1994,1.2006,1.2022,1.2053,1.2065,1.2091,1.2068,1.2097,1.2115,1.2103,1.2139,1.2146,1.2164,1.2206,1.2224,1.2214,1.2288,1.2266,1.2269,1.2271,1.2293,1.2301,1.2307,1.2221,1.2221,1.2221,0,0,1.2046,1.2058,1.209,1.2102,1.212,1.2124,1.2131,1.2148,1.2152,1.2188,1.2179,1.2201,1.2242,1.2255,1.2267,1.2321,1.2313,1.2328,1.2356,1.2379,1.2385,1.239,1.2409,1.2416,1.2333,1.2333,1.2333,0,1.2071,1.2109,1.2108,1.2136,1.215,1.2138,1.217,1.2182,1.2207,1.2216,1.2204,1.2254,1.2266,1.2309,1.2322,1.2332,1.234,1.2327,1.2384,1.2389,1.2394,1.2412,1.2419,1.2335,1.2334,1.2334,1.2334,0,1.2138,1.2164,1.2188,1.2211,1.2227,1.2257,1.226,1.2276,1.2273,1.2277,1.2313,1.2326,1.235,1.236,1.2358,1.2403,1.2396,1.2384,1.2362,1.2404,1.242,1.2427,1.2337,1.2336,1.2336,1.2336,0,0,1.2208,1.2228,1.2237,1.2246,1.2265,1.2285,1.2314,1.2337,1.235,1.2367,1.2391,1.2425,1.2414,1.2427,1.2426,1.2445,1.2486,1.2431,1.2431,1.244,1.2535,1.2544,1.2552,1.2481,1.2482,1.2483,1.2534,0,1.2261,1.2312,1.231,1.2357,1.2381,1.2369,1.2394,1.2408,1.2412,1.2432,1.2437,1.2461,1.2445,1.2452,1.2471,1.2477,1.2505,1.2474,1.2503,1.2504,1.2498,1.2561,1.2571,1.2618,1.254,1.2541,1.2542,0,1.233,1.2348,1.2397,1.241,1.242,1.2443,1.2463,1.2483,1.2497,1.2499,1.2513,1.2508,1.2536,1.2513,1.2552,1.253,1.2542,1.2546,1.2548,1.2551,1.2526,1.2565,1.2633,1.264,1.2553,1.2552,1.2551,0,1.2375,1.2412,1.2446,1.2454,1.2471,1.2486,1.2494,1.2507,1.252,1.2538,1.2546,1.2567,1.2578,1.2594,1.2594,1.2578,1.2633,1.261,1.2634,1.2634,1.2647,1.2646,1.2717,1.2655,1.2655,1.2654,1.2654,0,1.2435,1.2465,1.2466,1.2487,1.252,1.2517,1.255,1.2556,1.2567,1.2588,1.258,1.26,1.2599,1.2619,1.2619,1.265,1.2656,1.2657,1.2657,1.2658,1.2658,1.2666,1.2662,1.2656,1.2656,1.2656,1.2655,0,1.2491,1.2493,1.2529,1.254,1.2544,1.2568,1.2578,1.2597,1.26,1.2626,1.2633,1.2637,1.266,1.2661,1.2688,1.2688,1.2726,1.2722,1.2721,1.272,1.2744,1.2742,1.2823,1.2833,1.2764,1.2765,1.2765,0,1.2529,1.2552,1.2566,1.2579,1.2587,1.2609,1.2622,1.262,1.2634,1.265,1.2668,1.2689,1.2707,1.2744,1.2749,1.2769,1.2766,1.2793,1.2769,1.2769,1.2765,1.2764,1.2766,1.2798,1.2798,1.2799,1.2799,0,1.2596,1.2595,1.2614,1.2633,1.2649,1.2664,1.2678,1.2689,1.2689,1.2705,1.2728,1.2741,1.2767,1.2789,1.2808,1.2815,1.2807,1.2807,1.2813,1.2815,1.2813,1.2813,1.2733,1.2805,1.2804,1.2804,1.2804,1.2804,1.2644,1.2663,1.2675,1.2696,1.2706,1.2719,1.2737,1.2741,1.2761,1.2782,1.2779,1.2804,1.2816,1.2841,1.2849,1.2868,1.2859,1.2869,1.2871,1.2874,1.2876,1.2809,1.2872,1.2872,1.2872,1.2872,1.2871,0,1.271,1.2717,1.2736,1.2755,1.2771,1.2761,1.2776,1.279,1.2812,1.2824,1.2841,1.2866,1.2887,1.2893,1.2912,1.2926,1.2923,1.2931,1.293,1.2932,1.2883,1.2876,1.2934,1.2934,1.2934,1.2934,1.2934,1.2934,1.2746,1.2777,1.2778,1.2813,1.282,1.2844,1.2853,1.2864,1.2873,1.2902,1.2919,1.2922,1.2931,1.2951,1.2969,1.297,1.2977,1.2987,1.2987,1.2942,1.2936,1.293,1.2922,1.2989,1.2989,1.3034,1.3034,1.3035]}]]